Regional Weather Roundup
Issued by NWS

Home | Current Version | Previous Version | Text Only | Print | Product List | Glossary Off
Versions: 1 2 3 4 5 6 7 8 9 10 11 12 13 14 15 16 17 18 19 20 21 22 23 24 25 26 27 28 29 30 31 32 33 34 35 36 37 38 39 40 41 42 43 44 45 46 47 48 49 50

000
ASUS43 KLOT 221008
RWRIL

ILLINOIS REGIONAL WEATHER ROUNDUP
NATIONAL WEATHER SERVICE CHICAGO/ROMEOVILLE IL
400 AM CST WED NOV 22 2017

NOTE: "FAIR" INDICATES FEW OR NO CLOUDS BELOW 12,000 FEET WITH NO
SIGNIFICANT WEATHER AND/OR OBSTRUCTIONS TO VISIBILITY.

* THESE STATIONS ARE NOT UNDER NWS QUALITY CONTROL. THEY ALSO MAY NOT
  REPORT WEATHER SUCH AS PRECIPITATION OR FOG.

ILZ001-002-007-009-015-016-024-221100-
NORTHWEST ILLINOIS

CITY           SKY/WX    TMP DP  RH WIND       PRES   REMARKS
MOLINE         CLOUDY    20  13  74 W6        30.36R WCI  12
STERLING*      PTCLDY    19  16  88 W7        30.34R WCI  10
SAVANNA*       CLOUDY    22  14  70 NW6       30.35R WCI  15
$$

ILZ003-004-008-010-011-017-018-221100-
NORTH CENTRAL ILLINOIS

CITY           SKY/WX    TMP DP  RH WIND       PRES   REMARKS
ROCKFORD       PTCLDY    21  14  74 NW7       30.33R WCI  12
FREEPORT*      CLEAR     19  13  77 W5        30.33R WCI  12
ROCHELLE*      CLEAR     19  16  86 NW3       30.32R
DE KALB*       CLEAR     19  15  82 NW6       30.30R WCI  11
PERU*          CLEAR     19  15  84 NW7       30.33R WCI  10
$$

ILZ005-006-012>014-019>023-221100-
NORTHEAST ILLINOIS

CITY           SKY/WX    TMP DP  RH WIND       PRES   REMARKS
CHICAGO-OHARE  PTCLDY    25  15  66 NW8       30.28R WCI  16
CHICAGO-MIDWAY CLEAR     26  14  60 N9        30.29R WCI  17
AURORA         CLEAR     18  14  84 NW8       30.31R WCI   8
LANSING*       PTCLDY    25  17  71 NW7       30.28R WCI  17
JOLIET*        CLEAR     24  18  79 CALM      30.31R
WAUKEGAN       CLEAR     20  14  77 W3        30.28R
DUPAGE AIRPORT CLEAR     20  15  81 N5        30.29R WCI  13
KANKAKEE*      CLEAR     24  17  73 NW7       30.31R WCI  16
WHEELING       CLEAR     21  15  78 NW5       30.31R WCI  15
MORRIS*        CLEAR     20  17  86 NW3       30.31R
ROMEOVILLE*    CLEAR     21  17  82 NW8       30.30R WCI  12
$$

LMZ740>746-221100-
SOUTHERN LAKE MICHIGAN

STATION/POSITION SKY/WX   TEMP    WIND        PRES    VSBY  WAVE
                          AIR SEA DIR/SP/G                  HT/PER
                          (F)     (DEG/KT/KT) (MB)    (MI)  (FT/S)
SOUTHERN BUOY              31 47  350/ 14/ 17 1024.5          5/ 7
HARRISON CRIB              28     310/ 16/ 19   N/A
BURNHAM HARBOR             27     300/  8/ 15   N/A
CALUMET HARBOR             26     290/  7/ 11 1024.6R
BURNS HARBOR               33     350/ 14/ 17 1024.4S
MICHIGAN CITY              33     330/ 22/ 25   N/A
$$

ILZ025>027-034>036-040-047-049-050-058-095>099-221100-
WEST-CENTRAL ILLINOIS

CITY           SKY/WX    TMP DP  RH WIND       PRES   REMARKS
QUINCY         CLOUDY    22  16  78 NW10      30.37R WCI  11
GALESBURG*     CLOUDY    17  14  89 W7        30.37R WCI   8
MACOMB*        CLOUDY    19  17  89 NW8       30.38S WCI   9
JACKSONVILLE*  CLOUDY    22  17  82 NW7       30.36R WCI  14
PITTSFIELD*    CLOUDY    23  18  81 NW6       30.37S WCI  15
$$

ILZ028>032-037-038-041>044-048-051>054-059>061-221100-
CENTRAL ILLINOIS

CITY           SKY/WX    TMP DP  RH WIND       PRES   REMARKS
PONTIAC        CLEAR     21  20  93 NW6       30.32R WCI  14
BLOOMINGTON    CLEAR     21  17  84 NW9       30.31R WCI  11
DECATUR        CLEAR     25  18  74 N13       30.32R WCI  14
PEORIA         CLOUDY    21  16  81 NW3       30.35R
LACON*         PTCLDY    20  15  83 CALM      30.34R
LINCOLN*       CLEAR     24  20  86 NW3       30.34R
SPRINGFIELD    CLOUDY    24  19  81 NW8       30.35R WCI  15
TAYLORVILLE    CLEAR     24  19  80 NW9       30.34R WCI  15
$$

ILZ033-039-045-046-055>057-062-063-221100-
EAST-CENTRAL ILLINOIS

CITY           SKY/WX    TMP DP  RH WIND       PRES   REMARKS
CHAMPAIGN      CLEAR     21  18  88 NW6       30.30R WCI  13
DANVILLE*      CLEAR     24  18  78 NW8       30.26R WCI  15
RANTOUL*       CLEAR     26  21  83 NW7       30.30R WCI  18
MATTOON        PTCLDY    23  20  88 NW8       30.29R WCI  14
PARIS*         CLEAR     24  21  89 NW5       30.30R WCI  18
$$

ILZ079-100>102-221100-
SOUTHWEST ILLINOIS

CITY           SKY/WX    TMP DP  RH WIND       PRES   REMARKS
ALTON          PTCLDY    26  20  80 NW5       30.36R WCI  20
BELLEVILLE     CLOUDY    27  18  70 NW7       30.35R WCI  19
CAHOKIA*       PTCLDY    28  18  66 N14       30.36R WCI  17
SPARTA*        CLOUDY    28  20  72 NW8       30.35R WCI  20
$$

ILZ064>066-069>071-074>076-080>082-084>086-088>090-092>094-221100-
SOUTH-CENTRAL ILLINOIS

CITY           SKY/WX    TMP DP  RH WIND       PRES   REMARKS
CARBONDALE     CLOUDY    28  22  78 N8        30.33R WCI  20
CAIRO*         CLEAR     30  22  72 N7        30.31S WCI  23
EFFINGHAM*     CLEAR     27  23  84 NW5       30.33R WCI  22
MARION         CLEAR     30  22  74 NW3       30.32R
MT. VERNON     CLOUDY    27  21  78 CALM      30.32R
CENTRALIA*     CLOUDY    28  22  80 NW7       30.32R WCI  20
SALEM*         CLOUDY    27  21  80 NW6       30.33R WCI  20
METROPOLIS*    CLEAR     30  23  74 N5        30.31S WCI  25
$$

ILZ067-068-072-073-078-083-087-091-221100-
SOUTHEAST ILLINOIS

CITY           SKY/WX    TMP DP  RH WIND       PRES   REMARKS
LAWRENCEVILLE  CLEAR     29  22  75 N10       30.29R WCI  20
FLORA*         CLEAR     29  22  77 NW7       30.32R WCI  22
FAIRFIELD*     CLEAR     28  22  78 CALM      30.30R
HARRISBURG*    CLEAR     28  22  78 N6        30.32R WCI  22
ROBINSON*      CLEAR     26  22  83 N7        30.31R WCI  18
CARMI*         CLEAR     27  23  85 NW8       30.30R WCI  18
$$

ABBREVIATIONS USED IN REMARKS
   TC - TEMPERATURE IN CELSIUS
  WCI - WIND CHILL INDEX
   HX - HEAT INDEX
  VSB - VISIBILITY
$$





USA.gov is the U.S. government's official web portal to all federal, state and local government web resources and services.